LNR790I LFPG-ZSPD

Flight info

Callsign LNR790I
Flight time N/A
Altitude 33000
Route LANVI DCT LUPEN UM164 UTABA DCT INPUL DCT VATET DCT MOPUG/N0466F350 DCT ASNEL DCT UDROS DCT ABSAX DCT REBLO DCT MATAL T916 LEYLA N161 GASBI/K0861F350 N161 DIVNO/K0865F370 N161 SARIN/K0848S1130 A368 FKG W188 LIKMI DCT DKO/K0841S1190 W69 HUR B339 SOTMU/K0856S1160 W98 ELKUR W40 DOXAB/K0850S1190 W40 YQG/K0852S1160 W142 DALIM/K0848S1190 A593 DPX A470 DALNU W166 ZJ W167 SASAN SAS93A
Aircraft A346/H-SDE2E3FGHIJ3J4J5M1RWXY/LB1D1

Departure

Time N/A
Airport Charles de Gaulle International Airport (LFPG)

Arrival

Time 2026-05-08 09:08
Airport Shanghai Pudong International Airport (ZSPD)
Time Latitude Longitude Altitude Speed Heading
2026-05-08 08:40 31.56616 120.39594 22994 ft 483 kts 111°
2026-05-08 08:40 31.55519 120.43371 22529 ft 478 kts 110°
2026-05-08 08:40 31.54454 120.47075 22081 ft 473 kts 110°
2026-05-08 08:41 31.53399 120.50715 21630 ft 468 kts 110°
2026-05-08 08:41 31.52348 120.54307 21188 ft 464 kts 110°
2026-05-08 08:41 31.51297 120.57869 20747 ft 459 kts 110°
2026-05-08 08:41 31.50251 120.61400 20305 ft 455 kts 110°
2026-05-08 08:42 31.49216 120.64886 19865 ft 451 kts 110°
2026-05-08 08:42 31.48185 120.68351 19434 ft 447 kts 110°
2026-05-08 08:42 31.47160 120.71790 18993 ft 443 kts 109°
2026-05-08 08:42 31.46143 120.75199 18561 ft 440 kts 109°
2026-05-08 08:43 31.45140 120.78563 18077 ft 436 kts 109°
2026-05-08 08:43 31.44128 120.81896 17611 ft 431 kts 110°
2026-05-08 08:43 31.43106 120.85182 17150 ft 427 kts 110°
2026-05-08 08:43 31.42089 120.88436 16714 ft 422 kts 110°
2026-05-08 08:44 31.41070 120.91662 16273 ft 418 kts 111°
2026-05-08 08:44 31.39831 120.94727 15836 ft 414 kts 119°
2026-05-08 08:44 31.38264 120.97571 15600 ft 418 kts 127°
2026-05-08 08:44 31.36444 121.00248 15632 ft 421 kts 130°
2026-05-08 08:45 31.34566 121.02890 15653 ft 422 kts 130°
2026-05-08 08:45 31.33317 121.04635 15667 ft 422 kts 130°
2026-05-08 08:45 31.31432 121.07272 15688 ft 422 kts 130°
2026-05-08 08:45 31.29541 121.09929 15702 ft 422 kts 130°
2026-05-08 08:46 31.27666 121.12571 15729 ft 423 kts 130°
2026-05-08 08:46 31.25179 121.16079 15732 ft 423 kts 130°
2026-05-08 08:46 31.23298 121.18733 15497 ft 423 kts 130°
2026-05-08 08:46 31.21425 121.21374 14964 ft 420 kts 130°
2026-05-08 08:47 31.20170 121.23143 14648 ft 417 kts 130°
2026-05-08 08:47 31.18325 121.25741 14193 ft 412 kts 130°
2026-05-08 08:47 31.16503 121.28308 13707 ft 408 kts 130°
2026-05-08 08:47 31.14721 121.30814 13253 ft 403 kts 130°
2026-05-08 08:48 31.13086 121.33420 12981 ft 392 kts 121°
2026-05-08 08:48 31.11895 121.36232 12885 ft 376 kts 111°
2026-05-08 08:48 31.11114 121.39118 12517 ft 369 kts 104°
2026-05-08 08:48 31.10467 121.41997 12182 ft 362 kts 103°
2026-05-08 08:49 31.09850 121.44816 11877 ft 355 kts 103°
2026-05-08 08:49 31.09238 121.47579 11597 ft 347 kts 103°
2026-05-08 08:49 31.08632 121.50267 11359 ft 338 kts 103°
2026-05-08 08:49 31.08033 121.52896 11116 ft 331 kts 104°
2026-05-08 08:50 31.07444 121.55461 10855 ft 323 kts 103°
2026-05-08 08:50 31.06866 121.57968 10634 ft 315 kts 104°
2026-05-08 08:50 31.06303 121.60407 10455 ft 307 kts 104°
2026-05-08 08:50 31.05751 121.62787 10290 ft 297 kts 103°
2026-05-08 08:51 31.05217 121.65086 10115 ft 290 kts 103°
2026-05-08 08:51 31.04699 121.67332 9885 ft 285 kts 103°
2026-05-08 08:51 31.04216 121.69579 9574 ft 282 kts 96°
2026-05-08 08:51 31.04207 121.71832 9262 ft 275 kts 78°
2026-05-08 08:52 31.04697 121.73968 9002 ft 271 kts 70°
2026-05-08 08:52 31.05295 121.76043 8714 ft 269 kts 69°
2026-05-08 08:52 31.05893 121.78097 8425 ft 267 kts 69°
2026-05-08 08:52 31.06481 121.80149 8138 ft 265 kts 70°
2026-05-08 08:53 31.07058 121.82190 7847 ft 264 kts 70°
2026-05-08 08:53 31.07628 121.84222 7568 ft 262 kts 70°
2026-05-08 08:53 31.08194 121.86246 7288 ft 261 kts 70°
2026-05-08 08:53 31.08754 121.88259 7009 ft 260 kts 70°
2026-05-08 08:54 31.09312 121.90263 6729 ft 259 kts 70°
2026-05-08 08:54 31.09868 121.92265 6427 ft 258 kts 71°
2026-05-08 08:54 31.10062 121.94349 6084 ft 262 kts 97°
2026-05-08 08:54 31.09367 121.96306 5789 ft 267 kts 126°
2026-05-08 08:55 31.07906 121.97674 5783 ft 276 kts 153°
2026-05-08 08:55 31.06085 121.98414 5823 ft 279 kts 160°
2026-05-08 08:55 31.04230 121.99077 5851 ft 279 kts 160°
2026-05-08 08:55 31.02374 121.99741 5879 ft 279 kts 160°
2026-05-08 08:56 31.00520 122.00415 5897 ft 279 kts 160°
2026-05-08 08:56 30.98659 122.01100 5911 ft 280 kts 160°
2026-05-08 08:56 30.96802 122.01789 5919 ft 280 kts 160°
2026-05-08 08:56 30.94981 122.02466 5925 ft 280 kts 160°
2026-05-08 08:57 30.93125 122.03159 5921 ft 280 kts 160°
2026-05-08 08:57 30.91289 122.03843 5919 ft 280 kts 160°
2026-05-08 08:57 30.89392 122.04550 5919 ft 279 kts 159°
2026-05-08 08:57 30.87541 122.05241 5919 ft 279 kts 159°
2026-05-08 08:58 30.85693 122.05933 5928 ft 279 kts 159°
2026-05-08 08:58 30.83817 122.06632 5930 ft 278 kts 159°
2026-05-08 08:58 30.81996 122.07238 5930 ft 268 kts 171°
2026-05-08 08:58 30.80237 122.06916 5887 ft 258 kts 208°
2026-05-08 08:59 30.79015 122.05470 5904 ft 254 kts 247°
2026-05-08 08:59 30.78464 122.03489 5715 ft 255 kts 257°
2026-05-08 08:59 30.78040 122.01480 5409 ft 255 kts 257°
2026-05-08 08:59 30.77588 121.99486 5127 ft 254 kts 259°
2026-05-08 09:00 30.77603 121.97470 4883 ft 245 kts 291°
2026-05-08 09:00 30.78483 121.95836 4716 ft 233 kts 324°
2026-05-08 09:00 30.79865 121.94987 4450 ft 224 kts 347°
2026-05-08 09:00 30.81358 121.94493 4204 ft 222 kts 350°
2026-05-08 09:01 30.82847 121.94044 3963 ft 219 kts 350°
2026-05-08 09:01 30.84303 121.93580 3761 ft 214 kts 349°
2026-05-08 09:01 30.85722 121.93097 3486 ft 211 kts 348°
2026-05-08 09:01 30.87121 121.92596 3225 ft 208 kts 347°
2026-05-08 09:02 30.88507 121.92084 2975 ft 209 kts 347°
2026-05-08 09:02 30.89905 121.91555 2781 ft 208 kts 346°
2026-05-08 09:02 30.91289 121.91027 2701 ft 210 kts 346°
2026-05-08 09:02 30.92676 121.90494 2553 ft 209 kts 345°
2026-05-08 09:03 30.94067 121.89959 2290 ft 208 kts 345°
2026-05-08 09:03 30.95433 121.89433 2027 ft 204 kts 345°
2026-05-08 09:03 30.96764 121.88923 2007 ft 200 kts 345°
2026-05-08 09:03 30.98046 121.88432 1983 ft 188 kts 344°
2026-05-08 09:04 30.99246 121.87972 1953 ft 176 kts 345°
2026-05-08 09:04 31.00410 121.87530 1977 ft 176 kts 345°
2026-05-08 09:04 31.01575 121.87089 1985 ft 177 kts 344°
2026-05-08 09:04 31.02729 121.86649 1988 ft 167 kts 345°
2026-05-08 09:05 31.03782 121.86246 1905 ft 155 kts 346°
2026-05-08 09:05 31.04800 121.85861 1690 ft 153 kts 345°
2026-05-08 09:05 31.05805 121.85466 1458 ft 152 kts 344°
2026-05-08 09:05 31.06804 121.85073 1255 ft 151 kts 345°
2026-05-08 09:06 31.07805 121.84699 1102 ft 151 kts 345°
2026-05-08 09:06 31.08810 121.84333 885 ft 151 kts 345°
2026-05-08 09:06 31.09797 121.83972 687 ft 150 kts 344°
2026-05-08 09:06 31.10790 121.83595 482 ft 150 kts 344°
2026-05-08 09:07 31.11779 121.83208 301 ft 150 kts 345°
2026-05-08 09:07 31.12752 121.82844 83 ft 144 kts 345°
2026-05-08 09:07 31.13644 121.82517 31 ft 114 kts 342°
2026-05-08 09:07 31.14224 121.82299 30 ft 61 kts 342°
2026-05-08 09:08 31.14475 121.82202 31 ft 28 kts 341°
2026-05-08 09:08 31.14657 121.82108 28 ft 30 kts 326°
2026-05-08 09:08 31.14776 121.81982 29 ft 13 kts 314°
2026-05-08 09:08 31.14824 121.81926 29 ft 4 kts 315°
2026-05-08 09:09 31.14854 121.81891 29 ft 8 kts 315°
2026-05-08 09:09 31.14906 121.81843 30 ft 11 kts 329°
2026-05-08 09:09 31.14976 121.81788 30 ft 13 kts 300°
2026-05-08 09:09 31.14962 121.81669 30 ft 17 kts 253°
2026-05-08 09:10 31.14921 121.81521 30 ft 19 kts 251°
2026-05-08 09:10 31.14897 121.81436 30 ft 10 kts 252°
2026-05-08 09:10 31.14893 121.81422 30 ft 0 kts 252°
2026-05-08 09:17 31.14893 121.81420 30 ft 1 kts 252°
2026-05-08 09:17 31.14885 121.81392 31 ft 6 kts 252°
2026-05-08 09:17 31.14867 121.81329 31 ft 11 kts 252°
2026-05-08 09:17 31.14839 121.81229 31 ft 13 kts 252°
2026-05-08 09:18 31.14819 121.81159 31 ft 10 kts 251°
2026-05-08 09:18 31.14811 121.81066 31 ft 14 kts 295°
2026-05-08 09:18 31.14885 121.81014 31 ft 11 kts 342°
2026-05-08 09:18 31.14967 121.80984 31 ft 6 kts 342°
2026-05-08 09:19 31.14975 121.80981 31 ft 3 kts 342°
2026-05-08 09:19 31.14994 121.80962 31 ft 4 kts 294°
2026-05-08 09:19 31.14985 121.80920 31 ft 6 kts 248°
2026-05-08 09:19 31.14979 121.80902 31 ft 0 kts 251°
2026-05-08 09:20 31.14977 121.80894 31 ft 2 kts 251°
2026-05-08 09:20 31.14974 121.80883 31 ft 1 kts 251°
2026-05-08 09:20 31.14972 121.80878 31 ft 0 kts 251°